User: anonymous   Login
Location: Ay?beleni
(36.6500°N, 30.3000°E)
Time: 23:23:05
(UTC+00:00)
Language:

Terra - Orbit

View from above orbital plane
View from above orbital plane
View from above satellite
View from above satellite

Ground track
Ground track

The orbit data is extracted from the following two-line orbital elements,

1 25994U 99068A   20188.74123907 -.00000007  00000-0  84114-5 0  9994
2 25994  98.2126 262.7577 0001366  90.9086 269.2264 14.57113734 93125
Epoch (UTC): 06 July 2020 17:47:23
Eccentricity: 0.0001366
inclination: 98.2126°
perigee height: 701 km
apogee height: 703 km
right ascension of ascending node: 262.7577°
argument of perigee: 90.9086°
revolutions per day: 14.57113734
mean anomaly at epoch: 269.2264°
orbit number at epoch: 9312

The dashed part of the orbit path shows where the satellite is in the earth's shadow,  

DLR